User: anonymous   Login
Location: Unspecified
(0.0000°N, 0.0000°E)
Time: 06:05:43
(UTC+00:00)
Language:

GALILEO-FM3 - Orbit

View from above orbital plane
View from above orbital plane
View from above satellite
View from above satellite

Ground track
Ground track

The orbit data is extracted from the following two-line orbital elements,

1 38857U 12055A   18232.04862064 -.00000003  00000-0  00000+0 0  9993
2 38857  54.9129 180.1774 0004383 263.4493  96.4661  1.70473849 36431
Epoch (UTC): 20 August 2018 01:10:00
Eccentricity: 0.0004383
inclination: 54.9129°
perigee height: 23209 km
apogee height: 23235 km
right ascension of ascending node: 180.1774°
argument of perigee: 263.4493°
revolutions per day: 1.70473849
mean anomaly at epoch: 96.4661°
orbit number at epoch: 3643

The dashed part of the orbit path shows where the satellite is in the earth's shadow,  

DLR